APG167 RPLL-RKSI

Flight info

Callsign APG167
Flight time N/A
Altitude 34000
Route CAB2R CAB B462 LAO/N0465F350 M646 POTIB Q14 TNN W4 ANLOT B1 APU DCT DRAKE Q11 WP900 L4 LIPLO Y741 ATOTI Y722 OLMEN OLMEN3C
Aircraft A320/M-SDE3FGHIRWY/LB1

Departure

Time 2026-05-06 16:27
Airport Ninoy Aquino International Airport (RPLL)

Arrival

Time N/A
Airport Incheon International Airport (RKSI)
Time Latitude Longitude Altitude Speed Heading
2026-05-06 15:49 14.50365 121.00371 69 ft 0 kts 50°
2026-05-06 16:17 14.50357 121.00361 59 ft 4 kts 60°
2026-05-06 16:18 14.50350 121.00337 64 ft 4 kts 106°
2026-05-06 16:18 14.50363 121.00319 66 ft 4 kts 167°
2026-05-06 16:18 14.50370 121.00317 59 ft 0 kts 179°
2026-05-06 16:20 14.50367 121.00317 59 ft 2 kts 182°
2026-05-06 16:20 14.50334 121.00313 62 ft 7 kts 203°
2026-05-06 16:21 14.50279 121.00278 60 ft 12 kts 190°
2026-05-06 16:21 14.50211 121.00304 64 ft 10 kts 149°
2026-05-06 16:21 14.50163 121.00333 68 ft 5 kts 152°
2026-05-06 16:21 14.50135 121.00336 61 ft 3 kts 189°
2026-05-06 16:22 14.50117 121.00324 68 ft 4 kts 223°
2026-05-06 16:22 14.50090 121.00281 63 ft 8 kts 239°
2026-05-06 16:22 14.50066 121.00238 64 ft 6 kts 240°
2026-05-06 16:22 14.50048 121.00206 68 ft 4 kts 240°
2026-05-06 16:23 14.50034 121.00179 64 ft 8 kts 240°
2026-05-06 16:23 14.49985 121.00091 66 ft 15 kts 240°
2026-05-06 16:23 14.49936 121.00003 66 ft 12 kts 240°
2026-05-06 16:23 14.49878 120.99966 69 ft 9 kts 171°
2026-05-06 16:24 14.49875 120.99967 62 ft 0 kts 166°
2026-05-06 16:24 14.49861 120.99973 69 ft 7 kts 154°
2026-05-06 16:24 14.49860 120.99974 69 ft 0 kts 153°
2026-05-06 16:25 14.49840 120.99984 66 ft 15 kts 153°
2026-05-06 16:26 14.49798 121.00038 64 ft 6 kts 59°
2026-05-06 16:26 14.49849 121.00126 65 ft 29 kts 59°
2026-05-06 16:26 14.50087 121.00549 64 ft 104 kts 60°
2026-05-06 16:26 14.50550 121.01386 71 ft 160 kts 60°
2026-05-06 16:27 14.51141 121.02477 379 ft 179 kts 62°
2026-05-06 16:27 14.51755 121.03652 796 ft 194 kts 60°
2026-05-06 16:27 14.52496 121.04978 1082 ft 211 kts 59°
2026-05-06 16:27 14.53215 121.06250 1210 ft 230 kts 59°
2026-05-06 16:28 14.54063 121.07752 1352 ft 250 kts 59°
2026-05-06 16:28 14.54951 121.09334 1712 ft 257 kts 59°
2026-05-06 16:28 14.55849 121.10943 2202 ft 260 kts 60°
2026-05-06 16:28 14.56997 121.12603 2722 ft 261 kts 39°
2026-05-06 16:29 14.58429 121.13357 3117 ft 262 kts 11°
2026-05-06 16:29 14.60246 121.13362 3564 ft 263 kts 354°
2026-05-06 16:29 14.62080 121.13273 4042 ft 265 kts 359°
2026-05-06 16:29 14.63938 121.13297 4511 ft 267 kts
2026-05-06 16:30 14.65797 121.13354 4967 ft 269 kts
2026-05-06 16:30 14.67059 121.13394 5267 ft 270 kts
2026-05-06 16:30 14.69557 121.13429 5842 ft 272 kts 355°
2026-05-06 16:30 14.71413 121.13042 6259 ft 273 kts 341°
2026-05-06 16:31 14.73220 121.12404 6680 ft 275 kts 340°
2026-05-06 16:31 14.75035 121.11753 7079 ft 277 kts 340°
2026-05-06 16:31 14.76848 121.11099 7473 ft 279 kts 340°
2026-05-06 16:31 14.78687 121.10436 7868 ft 280 kts 340°
2026-05-06 16:32 14.80532 121.09770 8252 ft 282 kts 340°
2026-05-06 16:32 14.82399 121.09097 8631 ft 283 kts 340°
2026-05-06 16:32 14.84254 121.08430 8997 ft 285 kts 340°
2026-05-06 16:32 14.86125 121.07754 9355 ft 286 kts 340°
2026-05-06 16:33 14.88006 121.07074 9700 ft 288 kts 340°
2026-05-06 16:33 14.89945 121.06539 10036 ft 290 kts 350°
2026-05-06 16:33 14.91978 121.06326 10206 ft 298 kts 356°
2026-05-06 16:34 14.96208 121.06045 10467 ft 313 kts 356°
2026-05-06 16:34 14.98401 121.05896 10594 ft 318 kts 356°
2026-05-06 16:34 15.00631 121.05741 10719 ft 323 kts 355°
2026-05-06 16:34 15.02896 121.05581 10865 ft 327 kts 355°
2026-05-06 16:35 15.05171 121.05422 11046 ft 328 kts 356°
2026-05-06 16:35 15.07460 121.05264 11239 ft 330 kts 356°
2026-05-06 16:35 15.09760 121.05106 11436 ft 330 kts 356°
2026-05-06 16:35 15.12057 121.04946 11623 ft 331 kts 356°
2026-05-06 16:36 15.14350 121.04785 11808 ft 332 kts 355°
2026-05-06 16:36 15.16635 121.04625 11976 ft 333 kts 356°
2026-05-06 16:36 15.18277 121.04512 12108 ft 333 kts 356°